Weather History for Volkel, Netherlands

Change the Weather History Date:

Friday, December 7, 2012

  Actual Average Record
Temperature  
Mean Temperature 32 °F -  
Max Temperature 33 °F 41 °F 57 °F (2007)
Min Temperature 30 °F 32 °F 23 °F (2003)
Degree Days  
Heating Degree Days 34    
Moisture  
Dew Point 31 °F    
Average Humidity 94    
Maximum Humidity 100    
Minimum Humidity 81    
Precipitation  
Precipitation 0.00 in - - ()
Sea Level Pressure  
Sea Level Pressure 29.56 in    
Wind  
Wind Speed 13 mph ()    
Max Wind Speed 17 mph    
Max Gust Speed 25 mph    
Visibility 3.0 miles    
Events Snow    
Averages and records for this station are not official NWS values.
T = Trace of Precipitation, MM = Missing Value Source: Averaged Metar Reports

Daily Weather History Graph

Daily Weather History Graph

Search for Another Location

Airport:

Trip Planner

Search our weather history database for the weather conditions in past years. The results will help you decide how hot, cold, wet, or windy it might be!

Date:

Astronomy

Dec. 07, 2012 Rise Set
Actual Time 8:29 AM CET 4:28 PM CET
Civil Twilight 7:49 AM CET 5:07 PM CET
Nautical Twilight 7:06 AM CET 5:50 PM CET
Astronomical Twilight 6:25 AM CET 6:31 PM CET
Moon 12:48 AM CET (12/7) 12:55 PM CET (12/7)
Length of Visible Light 9h 18m
Length of Day
7h 58m
Last Quarter, 41% of the Moon is Illuminated
Dec 7
Last Quarter
Dec 13
New
Dec 20
First Quarter
Dec 28
Full
Jan 5
Last Quarter

Hourly Weather History & Observations

Time (CET) Temp. Windchill Dew Point Humidity Pressure Visibility Wind Dir Wind Speed Gust Speed Precip Events Conditions
12:25 AM 33.8 °F 24.3 °F 28.4 °F 81% 29.80 in 6.2 mi South 13.8 mph - N/A   Mostly Cloudy
12:55 AM 33.8 °F 24.3 °F 28.4 °F 81% 29.77 in 6.2 mi South 13.8 mph - N/A   Mostly Cloudy
1:25 AM 33.8 °F 23.5 °F 28.4 °F 81% 29.77 in 6.2 mi South 16.1 mph - N/A   Overcast
1:55 AM 33.8 °F 23.9 °F 28.4 °F 81% 29.74 in 6.2 mi South 15.0 mph - N/A   Mostly Cloudy
2:25 AM 33.8 °F 24.3 °F 28.4 °F 81% 29.71 in 6.2 mi South 13.8 mph - N/A   Mostly Cloudy
2:55 AM 33.8 °F 23.9 °F 28.4 °F 81% 29.71 in 6.2 mi South 15.0 mph - N/A   Mostly Cloudy
3:25 AM 33.8 °F 24.3 °F 28.4 °F 81% 29.68 in 6.2 mi South 13.8 mph - N/A   Mostly Cloudy
3:55 AM 33.8 °F 24.8 °F 28.4 °F 81% 29.65 in 6.2 mi SSE 12.7 mph - N/A   Mostly Cloudy
4:25 AM 33.8 °F 24.3 °F 28.4 °F 81% 29.62 in 6.2 mi South 13.8 mph 25.3 mph N/A   Mostly Cloudy
4:55 AM 33.8 °F 24.3 °F 28.4 °F 81% 29.59 in 6.2 mi South 13.8 mph - N/A   Overcast
5:25 AM 33.8 °F 24.3 °F 28.4 °F 81% 29.56 in 6.2 mi South 13.8 mph - N/A   Mostly Cloudy
5:55 AM 33.8 °F 24.3 °F 28.4 °F 81% 29.56 in 6.2 mi South 13.8 mph - N/A Snow Light Snow
6:01 AM 33.8 °F 24.3 °F 28.4 °F 81% 29.56 in 4.3 mi South 13.8 mph - N/A Snow Light Snow
6:05 AM 33.8 °F 23.9 °F 28.4 °F 81% 29.56 in 5.6 mi South 15.0 mph - N/A Snow Light Snow
6:12 AM 33.8 °F 23.5 °F 28.4 °F 81% 29.56 in 4.3 mi South 16.1 mph - N/A Snow Light Snow
6:16 AM 33.8 °F 23.9 °F 28.4 °F 81% 29.56 in - South 15.0 mph - N/A Snow Light Snow
6:25 AM 33.8 °F 23.5 °F 30.2 °F 87% 29.56 in - South 16.1 mph - N/A Snow Light Snow
6:29 AM 33.8 °F 23.5 °F 30.2 °F 87% 29.56 in - South 16.1 mph - N/A Snow Light Snow
6:37 AM 33.8 °F 23.5 °F 30.2 °F 87% 29.53 in - South 16.1 mph - N/A Snow Light Snow
6:55 AM 32.0 °F 21.2 °F 30.2 °F 93% 29.53 in 0.9 mi SSE 16.1 mph - N/A Snow Light Snow
6:59 AM 32.0 °F 21.2 °F 30.2 °F 93% 29.53 in 0.9 mi SSE 16.1 mph - N/A Snow Light Snow
7:00 AM 32.0 °F 21.6 °F 30.2 °F 93% 29.53 in 1.1 mi SSE 15.0 mph - N/A Snow Snow
7:15 AM 32.0 °F 21.6 °F 32.0 °F 100% 29.53 in 1.2 mi SSE 15.0 mph - N/A Snow Light Snow
7:19 AM 32.0 °F 22.1 °F 32.0 °F 100% 29.53 in 0.8 mi SSE 13.8 mph 25.3 mph N/A Snow Light Snow
7:25 AM 32.0 °F 22.1 °F 32.0 °F 100% 29.53 in 1.1 mi SSE 13.8 mph - N/A Snow Light Snow
7:31 AM 32.0 °F 22.1 °F 32.0 °F 100% 29.53 in 0.9 mi SSE 13.8 mph - N/A Snow Light Snow
7:35 AM 32.0 °F 22.1 °F 32.0 °F 100% 29.53 in 1.1 mi SSE 13.8 mph - N/A Snow Light Snow
7:48 AM 32.0 °F 21.6 °F 32.0 °F 100% 29.53 in 1.4 mi SSE 15.0 mph - N/A Snow Light Snow
7:55 AM 32.0 °F 21.6 °F 32.0 °F 100% 29.53 in 1.3 mi SSE 15.0 mph - N/A Snow Light Snow
8:00 AM 32.0 °F 21.6 °F 32.0 °F 100% 29.53 in 1.4 mi SSE 15.0 mph - N/A Snow Light Snow
8:10 AM 32.0 °F 21.6 °F 32.0 °F 100% 29.50 in 1.6 mi SSE 15.0 mph - N/A Snow Light Snow
8:25 AM 32.0 °F 21.2 °F 32.0 °F 100% 29.50 in 1.5 mi SE 16.1 mph - N/A Snow Light Snow
8:43 AM 32.0 °F 21.2 °F 32.0 °F 100% 29.50 in - SSE 16.1 mph - N/A Snow Light Snow
8:55 AM 32.0 °F 21.2 °F 32.0 °F 100% 29.50 in - SE 16.1 mph - N/A Snow Light Snow
8:59 AM 32.0 °F 20.8 °F 32.0 °F 100% 29.50 in 0.9 mi SE 17.3 mph - N/A Snow Light Snow
9:13 AM 32.0 °F 21.2 °F 30.2 °F 93% 29.50 in 0.7 mi SE 16.1 mph - N/A Snow Snow
9:17 AM 32.0 °F 21.2 °F 30.2 °F 93% 29.47 in 0.7 mi SE 16.1 mph - N/A Snow Snow
9:25 AM 32.0 °F 21.2 °F 32.0 °F 100% 29.47 in 0.7 mi SSE 16.1 mph - N/A Snow Snow
9:31 AM 32.0 °F 21.2 °F 30.2 °F 93% 29.47 in 0.6 mi SSE 16.1 mph - N/A Snow Snow
9:51 AM 32.0 °F 22.1 °F 30.2 °F 93% 29.47 in 1.0 mi SSE 13.8 mph - N/A Snow Light Snow
9:55 AM 32.0 °F 22.1 °F 32.0 °F 100% 29.47 in 0.9 mi SSE 13.8 mph - N/A Snow Light Snow
9:59 AM 32.0 °F 21.2 °F 32.0 °F 100% 29.47 in 0.9 mi SSE 16.1 mph - N/A Snow Snow
10:07 AM 32.0 °F 21.6 °F 32.0 °F 100% 29.47 in 0.8 mi SSE 15.0 mph - N/A Snow Light Snow
10:11 AM 32.0 °F 22.1 °F 32.0 °F 100% 29.47 in 0.9 mi SSE 13.8 mph - N/A Snow Light Snow Showers
10:17 AM 32.0 °F 22.1 °F 30.2 °F 93% 29.47 in 0.9 mi SSE 13.8 mph - N/A Snow Snow
10:25 AM 32.0 °F 22.1 °F 32.0 °F 100% 29.47 in 1.0 mi SSE 13.8 mph - N/A Snow Snow
10:27 AM 32.0 °F 22.1 °F 30.2 °F 93% 29.47 in 0.9 mi SSE 13.8 mph - N/A Snow Light Snow
10:41 AM 32.0 °F 21.6 °F 30.2 °F 93% 29.47 in 0.4 mi SSE 15.0 mph - N/A Snow Snow
10:48 AM 32.0 °F 21.6 °F 30.2 °F 93% 29.47 in 0.5 mi SE 15.0 mph - N/A Snow Snow
10:55 AM 32.0 °F 21.6 °F 32.0 °F 100% 29.47 in 0.7 mi SSE 15.0 mph - N/A Snow Snow
11:06 AM 32.0 °F 22.1 °F 32.0 °F 100% 29.47 in 0.7 mi SSE 13.8 mph - N/A Snow Snow
11:13 AM 32.0 °F 22.1 °F 30.2 °F 93% 29.47 in 0.6 mi SSE 13.8 mph - N/A Snow Snow
11:25 AM 32.0 °F 22.1 °F 30.2 °F 93% 29.47 in 0.6 mi SE 13.8 mph - N/A Snow Snow
11:28 AM 32.0 °F 21.6 °F 30.2 °F 93% 29.47 in 0.4 mi SE 15.0 mph - N/A Snow Snow
11:35 AM 32.0 °F 22.1 °F 30.2 °F 93% 29.47 in 0.5 mi SE 13.8 mph - N/A Snow Snow
11:48 AM 32.0 °F 22.5 °F 30.2 °F 93% 29.47 in 0.6 mi SSE 12.7 mph - N/A Snow Snow
11:55 AM 32.0 °F 22.5 °F 30.2 °F 93% 29.47 in 0.6 mi SE 12.7 mph - N/A Snow Snow
12:25 PM 32.0 °F 22.5 °F 30.2 °F 93% 29.47 in 0.6 mi SSE 12.7 mph - N/A Snow Snow
12:33 PM 32.0 °F 22.5 °F 32.0 °F 100% 29.47 in 1.0 mi SSE 12.7 mph - N/A Snow Light Snow
12:35 PM 32.0 °F 22.5 °F 32.0 °F 100% 29.47 in 0.9 mi SSE 12.7 mph - N/A Snow Light Snow
12:41 PM 32.0 °F 22.5 °F 32.0 °F 100% 29.47 in 1.0 mi SSE 12.7 mph - N/A Snow Light Snow
12:55 PM 32.0 °F 22.5 °F 32.0 °F 100% 29.47 in 0.9 mi SE 12.7 mph - N/A Snow Light Snow
1:25 PM 32.0 °F 23.0 °F 32.0 °F 100% 29.47 in 0.8 mi SSE 11.5 mph - N/A Snow Snow
1:29 PM 32.0 °F 23.0 °F 32.0 °F 100% 29.47 in 1.0 mi SSE 11.5 mph - N/A Snow Light Snow
1:42 PM 32.0 °F 23.6 °F 32.0 °F 100% 29.47 in 1.7 mi SSE 10.4 mph - N/A Snow Light Snow
1:55 PM 32.0 °F 23.6 °F 32.0 °F 100% 29.47 in 1.8 mi SSE 10.4 mph - N/A Snow Light Snow
2:25 PM 32.0 °F 23.0 °F 32.0 °F 100% 29.47 in 1.4 mi SE 11.5 mph - N/A Snow Light Snow
2:31 PM 32.0 °F 23.6 °F 32.0 °F 100% 29.47 in 1.3 mi SE 10.4 mph - N/A Snow Light Snow
2:35 PM 32.0 °F 24.2 °F 32.0 °F 100% 29.47 in 1.4 mi SE 9.2 mph - N/A Snow Light Snow
2:55 PM 32.0 °F 24.2 °F 32.0 °F 100% 29.47 in 1.5 mi SE 9.2 mph - N/A Snow Light Snow
3:25 PM 32.0 °F 24.2 °F 32.0 °F 100% 29.50 in 1.9 mi ESE 9.2 mph - N/A Snow Light Snow
3:48 PM 32.0 °F 24.2 °F 32.0 °F 100% 29.50 in 3.1 mi ESE 9.2 mph - N/A Snow Light Snow
3:55 PM 32.0 °F 24.2 °F 32.0 °F 100% 29.53 in 3.1 mi ESE 9.2 mph - N/A Snow Light Snow
4:10 PM 32.0 °F 23.0 °F 32.0 °F 100% 29.53 in 6.2 mi ESE 11.5 mph - N/A   Overcast
4:25 PM 32.0 °F 24.8 °F 32.0 °F 100% 29.53 in 6.2 mi ESE 8.1 mph - N/A Snow Light Snow
4:33 PM 32.0 °F 24.2 °F 32.0 °F 100% 29.53 in 6.2 mi ESE 9.2 mph - N/A   Overcast
4:37 PM 32.0 °F 23.6 °F 32.0 °F 100% 29.53 in 6.2 mi ESE 10.4 mph - N/A   Overcast
4:55 PM 32.0 °F 24.2 °F 32.0 °F 100% 29.56 in 6.2 mi ESE 9.2 mph - N/A Snow Light Snow Grains
5:09 PM 32.0 °F 23.6 °F 32.0 °F 100% 29.56 in 4.3 mi ESE 10.4 mph - N/A   Small Hail
5:25 PM 32.0 °F 23.0 °F 32.0 °F 100% 29.56 in 4.3 mi ESE 11.5 mph - N/A Snow Light Snow
5:41 PM 32.0 °F 23.6 °F 32.0 °F 100% 29.59 in 4.3 mi ESE 10.4 mph - N/A Snow Light Snow
5:45 PM 32.0 °F 23.6 °F 32.0 °F 100% 29.59 in 5.0 mi ESE 10.4 mph - N/A   Overcast
5:55 PM 32.0 °F 24.2 °F 32.0 °F 100% 29.59 in 5.6 mi East 9.2 mph - N/A Snow Light Snow
6:03 PM 32.0 °F 24.8 °F 32.0 °F 100% 29.59 in 4.3 mi East 8.1 mph - N/A Snow Light Snow
6:10 PM 32.0 °F 24.8 °F 32.0 °F 100% 29.62 in 5.0 mi East 8.1 mph - N/A Snow Light Snow
6:14 PM 32.0 °F 24.2 °F 32.0 °F 100% 29.62 in 4.3 mi East 9.2 mph - N/A   Overcast
6:25 PM 32.0 °F 23.6 °F 30.2 °F 93% 29.62 in 3.7 mi East 10.4 mph - N/A Snow Light Snow
6:31 PM 32.0 °F 23.6 °F 30.2 °F 93% 29.62 in - ESE 10.4 mph - N/A Snow Light Snow
6:35 PM 32.0 °F 23.6 °F 30.2 °F 93% 29.62 in 3.1 mi ESE 10.4 mph - N/A Snow Light Snow
6:39 PM 32.0 °F 24.2 °F 30.2 °F 93% 29.62 in 2.2 mi ESE 9.2 mph - N/A Snow Light Snow
6:55 PM 32.0 °F 23.6 °F 30.2 °F 93% 29.65 in 1.5 mi ESE 10.4 mph - N/A Snow Light Snow
6:59 PM 32.0 °F 23.6 °F 30.2 °F 93% 29.65 in 1.3 mi East 10.4 mph - N/A Snow Light Snow
7:03 PM 32.0 °F 24.2 °F 30.2 °F 93% 29.65 in 1.1 mi East 9.2 mph - N/A Snow Light Snow
7:25 PM 30.2 °F 23.4 °F 30.2 °F 100% 29.65 in - ESE 6.9 mph - N/A Snow Light Snow
7:38 PM 32.0 °F 24.8 °F 30.2 °F 93% 29.65 in 3.7 mi ESE 8.1 mph - N/A   Overcast
7:39 PM 32.0 °F 24.8 °F 30.2 °F 93% 29.68 in 3.7 mi ESE 8.1 mph - N/A Snow Light Snow
7:55 PM 32.0 °F 24.8 °F 32.0 °F 100% 29.68 in 5.6 mi East 8.1 mph - N/A   Overcast
8:25 PM 32.0 °F 23.0 °F 30.2 °F 93% 29.71 in 6.2 mi East 11.5 mph - N/A   Overcast
8:55 PM 32.0 °F 24.2 °F 30.2 °F 93% 29.71 in 6.2 mi East 9.2 mph - N/A   Overcast
9:25 PM 32.0 °F 24.8 °F 30.2 °F 93% 29.74 in 6.2 mi East 8.1 mph - N/A   Overcast
9:55 PM 32.0 °F 24.2 °F 30.2 °F 93% 29.77 in 6.2 mi East 9.2 mph - N/A   Overcast
10:25 PM 32.0 °F 24.8 °F 30.2 °F 93% 29.77 in 6.2 mi ENE 8.1 mph - N/A   Overcast
10:44 PM 32.0 °F 23.6 °F 30.2 °F 93% 29.80 in 6.2 mi ENE 10.4 mph - N/A   Overcast
10:55 PM 32.0 °F 23.6 °F 30.2 °F 93% 29.80 in 6.2 mi ENE 10.4 mph - N/A   Overcast
11:25 PM 30.2 °F 21.9 °F 28.4 °F 93% 29.83 in 6.2 mi ENE 9.2 mph - N/A   Overcast
11:55 PM 30.2 °F 23.4 °F 28.4 °F 93% 29.83 in 6.2 mi ENE 6.9 mph - N/A   Overcast